EW9666 Weather Reports


time (UTC)temp
C
wind
direction
speed
KPH
gust
KPH
rain 1hr
cm
rain 24hr
cm
rain mn
cm
humidity
%
barometer
mb
20260507201552 14 250 11.3 25.7 0.00 3.07 3.07 74 998.9
20260507200043 14 244 16.1 35.4 0.00 3.07 3.07 74 997.9
20260507194541 14 249 14.5 32.2 0.00 3.07 3.07 74 997.3
20260507193039 14 237 14.5 27.4 0.00 3.07 3.07 75 997.6
20260507191538 14 269 14.5 29.0 0.00 3.07 3.07 75 997.6
20260507190037 14 243 12.9 27.4 0.00 3.07 3.07 75 998.7
20260507184536 15 234 8.0 29.0 0.00 3.07 3.07 76 999.2
20260507183037 15 271 11.3 32.2 0.00 3.07 3.07 76 999.2
20260507181534 15 276 12.9 29.0 0.00 3.07 3.07 76 1000.2
20260507180037 14 241 16.1 27.4 0.00 3.07 3.07 78 1000.8
20260507174541 14 294 9.7 27.4 0.00 3.07 3.07 78 1000.0
20260507173035 14 255 9.7 20.9 0.00 3.07 3.07 80 999.0
20260507171536 14 256 4.8 11.3 0.00 3.07 3.07 80 998.7
20260507170041 14 239 9.7 27.4 0.00 3.07 3.07 79 999.4
20260507164530 14 271 14.5 32.2 0.00 3.07 3.07 78 1000.4
20260507163025 14 261 14.5 38.6 0.00 3.07 3.07 79 1000.7
20260507161521 15 247 16.1 27.4 0.00 3.07 3.07 80 999.5
20260507160019 15 260 14.5 29.0 0.00 3.07 3.07 82 998.7
20260507154517 15 256 8.0 16.1 0.00 3.07 3.07 85 999.0
20260507153019 15 240 11.3 25.7 0.00 3.07 3.07 84 999.5
20260507151515 15 273 11.3 27.4 0.00 3.07 3.07 84 999.1
20260507150015 15 252 16.1 29.0 0.00 3.07 3.07 85 999.5
20260507144513 16 237 9.7 25.7 0.00 3.07 3.07 88 999.9
20260507143012 16 261 1.6 14.5 0.00 3.07 3.07 88 998.6
20260507141510 16 240 1.6 9.7 0.00 3.07 3.07 88 998.7
20260507140009 16 236 8.0 17.7 0.00 3.07 3.07 88 999.0
20260507134509 16 244 3.2 9.7 0.00 3.25 3.07 89 998.6
20260507133008 15 254 8.0 12.9 0.00 3.25 3.07 88 999.7
20260507131510 15 247 0.0 9.7 0.00 3.25 3.07 90 1000.3
20260507130007 15 320 4.8 19.3 0.00 3.25 3.07 90 1001.5
20260507124509 15 258 6.4 16.1 0.00 3.25 3.07 91 999.7
20260507123005 15 249 9.7 17.7 0.00 3.25 3.07 94 998.8
20260507121502 15 258 8.0 22.5 0.00 3.25 3.07 97 999.2
20260507120105 14 252 11.3 29.0 0.00 3.25 3.07 97 999.1
20260507114614 14 254 14.5 25.7 0.00 3.25 3.07 97 997.3
20260507113058 15 220 9.7 29.0 0.00 3.25 3.07 98 998.3
20260507111552 15 319 4.8 19.3 0.00 3.25 3.07 98 998.7
20260507110052 15 247 9.7 19.3 0.00 3.25 3.07 98 997.3
20260507104547 15 242 8.0 16.1 0.00 3.25 3.07 98 997.2
20260507103046 16 263 9.7 24.1 0.00 3.25 3.07 98 997.9
20260507101543 16 273 8.0 20.9 0.00 3.25 3.07 98 998.5
20260507100042 16 301 0.0 9.7 0.00 3.25 3.07 98 997.2
20260507094541 16 268 9.7 24.1 0.00 3.25 3.07 98 997.7
20260507093043 16 267 8.0 16.1 0.00 3.25 3.07 98 997.2
20260507091537 16 252 4.8 12.9 0.00 3.25 3.07 98 996.5
20260507090037 17 242 6.4 12.9 0.00 3.25 3.07 98 998.0
20260507084534 17 242 8.0 22.5 0.00 3.25 3.07 98 997.1
20260507083033 17 237 8.0 19.3 0.05 3.25 3.07 97 997.1
20260507081541 17 248 4.8 9.7 0.05 3.25 3.07 97 996.5
20260507080031 17 101 0.0 11.3 0.05 3.25 3.07 97 996.8
20260507074546 17 73 3.2 9.7 0.05 3.23 3.05 97 996.2
20260507073030 17 151 1.6 16.1 0.08 3.20 3.05 97 997.0
20260507071529 17 76 3.2 17.7 0.15 3.20 3.05 97 997.1
20260507070026 17 105 4.8 12.9 0.25 3.20 3.05 97 997.2
20260507064524 17 106 4.8 12.9 0.25 3.15 3.00 97 998.2
20260507063026 17 140 3.2 8.0 0.28 3.12 2.97 97 998.9
20260507061522 17 188 0.0 6.4 0.23 3.05 2.84 97 999.9
20260507060022 17 266 4.8 16.1 0.15 2.92 2.77 97 1000.2
20260507054520 18 249 6.4 14.5 0.13 2.87 2.74 97 1000.6
20260507053016 18 247 0.0 8.0 0.43 2.84 2.69 96 999.2
20260507051516 18 308 0.0 9.7 1.85 2.79 2.64 95 998.5
20260507050024 18 150 1.6 9.7 2.39 2.79 2.64 95 998.5
20260507044512 18 131 3.2 12.9 2.59 2.77 2.62 94 998.1
20260507043010 18 265 8.0 16.1 2.21 2.39 2.21 94 998.5
20260507041506 19 217 11.3 37.0 0.71 0.86 0.71 92 999.4
20260507040005 22 153 14.5 40.2 0.23 0.38 0.23 85 997.7
20260507034601 24 331 8.0 19.3 0.03 0.18 0.03 82 996.0
20260507033100 25 25 3.2 14.5 0.00 0.15 0.00 81 996.2
20260507031604 25 339 8.0 25.7 0.00 0.15 0.00 81 996.2
20260507030054 25 33 8.0 17.7 0.00 0.15 0.00 81 996.6
20260507024547 25 42 4.8 14.5 0.00 0.15 0.15 81 996.9
20260507023043 25 355 4.8 19.3 0.00 0.15 0.15 81 997.0
20260507021540 25 339 4.8 29.0 0.00 0.15 0.15 81 997.3
20260507020042 25 7 6.4 19.3 0.00 0.15 0.15 81 997.4
20260507014548 25 20 4.8 22.5 0.00 0.15 0.15 81 998.0
20260507013039 25 26 3.2 17.7 0.00 0.15 0.15 81 997.9
20260507011541 25 278 6.4 24.1 0.00 0.15 0.15 81 998.2
20260507010040 25 346 9.7 24.1 0.00 0.15 0.15 81 998.2
20260507004535 25 333 4.8 16.1 0.00 0.15 0.15 82 998.4
20260507003035 24 349 6.4 16.1 0.00 0.15 0.15 83 998.4
20260507001535 24 62 4.8 16.1 0.00 0.15 0.15 84 998.2
20260507000037 23 60 3.2 14.5 0.00 0.15 0.15 85 998.1
20260506234530 23 24 4.8 9.7 0.00 0.15 0.15 86 998.0
20260506233033 23 59 4.8 17.7 0.00 0.15 0.15 86 997.4
20260506231525 22 42 4.8 14.5 0.00 0.15 0.15 88 997.7
20260506230022 21 74 4.8 14.5 0.00 0.15 0.15 90 998.0
20260506224518 21 66 3.2 9.7 0.00 0.15 0.15 89 998.6
20260506223017 20 45 3.2 8.0 0.00 0.15 0.15 90 998.7
20260506221513 20 71 3.2 9.7 0.00 0.15 0.15 89 999.2
20260506220020 20 84 3.2 9.7 0.00 0.15 0.15 89 999.4
20260506214512 20 72 0.0 8.0 0.00 0.15 0.15 89 999.9
20260506213008 21 63 3.2 8.0 0.00 0.15 0.15 88 1000.1
20260506211509 21 72 1.6 6.4 0.00 0.15 0.15 88 1000.1
20260506210009 21 73 1.6 8.0 0.00 0.15 0.15 87 1000.3
20260506204510 21 49 1.6 11.3 0.00 0.15 0.15 87 1000.3
20260506203004 21 102 3.2 8.0 0.00 0.15 0.15 87 1000.3